Date String (YYYY-MM-DD hh:mm:ss) UTC,Instrument flags,Ambient pressure (hPa),Sample flow (lpm),Bypass flow (lpm),Sample temperature (°C),Ambient temperature (°C),ASC tube jacket temperature (°C),LED temperature (°C),Box temperature (°C),Sample RH (%),Span deviation,Mass concentration (μg/m³),Mass concentration (μg/m³),Mass concentration (μg/m³)
DateTimeUTC,F1_M11,P_M11,Q1_M11,Q2_M11,T1_M11,T2_M11,T3_M11,T4_M11,T5_M11,U1_M11,ZSPAN_M11,X0_M11,X2_M11,X1_M11
2022-04-20 16:00:00,,0818.4,4.99,0.00,26.2,25.5,00.0,35.2,28.0,15.0,0000.0,0025.67,0005.71,0002.84
2022-04-20 16:01:00,,0818.4,5.00,0.00,26.2,25.5,00.0,35.2,28.0,14.9,0000.0,0025.24,0005.71,0002.84
2022-04-20 16:02:00,,0818.4,5.01,0.00,26.2,25.5,00.0,35.2,28.0,14.7,0000.0,0025.29,0005.66,0002.83
2022-04-20 16:03:00,,0818.4,5.01,0.00,26.2,25.4,00.0,35.2,28.0,14.7,0000.0,0026.37,0005.63,0002.82
2022-04-20 16:04:00,,0818.6,4.99,0.00,26.2,25.4,00.0,35.2,28.0,14.6,0000.0,0027.73,0005.69,0002.84
2022-04-20 16:05:00,,0818.8,5.00,0.00,26.2,25.4,00.0,35.2,28.0,14.8,0000.0,0027.86,0005.72,0002.88
2022-04-20 16:06:00,,0818.7,5.01,0.00,26.2,25.4,00.0,35.2,28.0,14.9,0000.0,0027.92,0005.69,0002.90
2022-04-20 16:07:00,,0818.7,5.00,0.00,26.2,25.4,00.0,35.2,28.0,14.9,0000.0,0027.76,0005.66,0002.91
2022-04-20 16:08:00,,0818.5,5.00,0.00,26.2,25.4,00.0,35.2,28.0,14.9,0000.0,0026.80,0005.67,0002.93
2022-04-20 16:09:00,,0818.4,5.00,0.00,26.2,25.4,00.0,35.2,28.0,14.8,0000.0,0026.39,0005.61,0002.92
2022-04-20 16:10:00,,0818.4,5.00,0.00,26.2,25.4,00.0,35.2,28.0,14.9,0000.0,0026.36,0005.58,0002.92
2022-04-20 16:11:00,,0818.4,5.01,0.00,26.2,25.4,00.0,35.2,28.0,15.0,0000.0,0024.51,0005.56,0002.91
2022-04-20 16:12:00,,0818.4,5.01,0.00,26.2,25.4,00.0,35.2,28.0,14.8,0000.0,0023.78,0005.49,0002.88
2022-04-20 16:13:00,,0818.5,4.99,0.00,26.2,25.5,00.0,35.2,28.0,14.8,0000.0,0022.98,0005.48,0002.87
2022-04-20 16:14:00,,0818.5,5.00,0.00,26.2,25.5,00.0,35.2,28.0,14.7,0000.0,0021.97,0005.51,0002.88
2022-04-20 16:15:00,,0818.4,5.02,0.00,26.2,25.5,00.0,35.2,28.0,14.8,0000.0,0020.13,0005.47,0002.89
2022-04-20 16:16:00,,0818.4,4.99,0.00,26.2,25.5,00.0,35.2,28.0,14.7,0000.0,0019.77,0005.37,0002.85
2022-04-20 16:17:00,,0818.5,4.99,0.00,26.2,25.5,00.0,35.2,28.0,14.8,0000.0,0018.84,0005.39,0002.82
2022-04-20 16:18:00,,0818.6,5.01,0.00,26.2,25.5,00.0,35.2,28.0,14.8,0000.0,0017.60,0005.34,0002.78
2022-04-20 16:19:00,,0818.6,4.99,0.00,26.2,25.5,00.0,35.2,28.0,14.6,0000.0,0016.84,0005.28,0002.75
2022-04-20 16:20:00,,0818.7,5.00,0.00,26.2,25.5,00.0,35.2,28.0,14.6,0000.0,0016.81,0005.28,0002.74
2022-04-20 16:21:00,,0818.8,5.01,0.00,26.2,25.5,00.0,35.2,28.0,14.5,0000.0,0016.12,0005.26,0002.74
2022-04-20 16:22:00,,0818.7,5.00,0.00,26.2,25.4,00.0,35.2,28.0,14.6,0000.0,0016.46,0005.27,0002.75
2022-04-20 16:23:00,,0818.7,5.00,0.00,26.2,25.5,00.0,35.2,28.0,14.7,0000.0,0016.50,0005.26,0002.75
2022-04-20 16:24:00,,0818.8,5.01,0.00,26.2,25.5,00.0,35.2,28.0,14.5,0000.0,0016.10,0005.23,0002.73
2022-04-20 16:25:00,,0818.7,4.99,0.00,26.2,25.5,00.0,35.2,28.0,14.6,0000.0,0016.39,0005.14,0002.70
2022-04-20 16:26:00,,0818.5,4.99,0.00,26.2,25.4,00.0,35.2,28.0,14.7,0000.0,0017.36,0005.07,0002.65
2022-04-20 16:27:00,,0818.5,5.01,0.00,26.2,25.5,00.0,35.2,28.0,14.8,0000.0,0017.57,0005.07,0002.64
2022-04-20 16:28:00,,0818.5,4.99,0.00,26.2,25.5,00.0,35.2,28.0,14.5,0000.0,0017.98,0005.04,0002.64
2022-04-20 16:29:00,,0818.5,4.99,0.00,26.2,25.5,00.0,35.2,28.0,14.6,0000.0,0018.33,0005.07,0002.66
2022-04-20 16:30:00,,0818.6,5.01,0.00,26.2,25.5,00.0,35.2,28.0,14.5,0000.0,0019.81,0005.08,0002.67
2022-04-20 16:31:00,,0818.6,5.02,0.00,26.2,25.5,00.0,35.2,28.0,14.5,0000.0,0020.05,0005.05,0002.68
2022-04-20 16:32:00,,0818.7,4.99,0.00,26.2,25.5,00.0,35.2,28.0,14.5,0000.0,0020.08,0005.02,0002.68
2022-04-20 16:33:00,,0818.8,5.00,0.00,26.2,25.6,00.0,35.2,28.1,14.3,0000.0,0019.15,0004.95,0002.66
2022-04-20 16:34:00,,0818.8,4.99,0.00,26.2,25.5,00.0,35.2,28.1,14.3,0000.0,0019.01,0005.01,0002.66
2022-04-20 16:35:00,,0818.8,5.01,0.00,26.2,25.5,00.0,35.2,28.1,14.2,0000.0,0019.48,0005.09,0002.67
2022-04-20 16:36:00,,0818.8,5.01,0.00,26.3,25.5,00.0,35.2,28.1,14.3,0000.0,0020.33,0005.11,0002.68
2022-04-20 16:37:00,,0818.8,4.99,0.00,26.3,25.5,00.0,35.2,28.1,14.2,0000.0,0020.21,0005.15,0002.69
2022-04-20 16:38:00,,0818.8,5.00,0.00,26.2,25.4,00.0,35.2,28.1,14.1,0000.0,0020.58,0005.16,0002.70
2022-04-20 16:39:00,,0818.9,5.01,0.00,26.3,25.4,00.0,35.2,28.0,14.1,0000.0,0020.58,0005.18,0002.70
2022-04-20 16:40:00,,0818.9,4.99,0.00,26.3,25.5,00.0,35.2,28.0,14.0,0000.0,0021.13,0005.18,0002.69
2022-04-20 16:41:00,,0818.9,5.01,0.00,26.3,25.5,00.0,35.2,28.1,14.1,0000.0,0020.67,0005.19,0002.69
2022-04-20 16:42:00,,0818.9,4.98,0.00,26.3,25.5,00.0,35.2,28.1,14.2,0000.0,0020.01,0005.16,0002.68
2022-04-20 16:43:00,,0818.9,5.00,0.00,26.3,25.6,00.0,35.2,28.1,14.2,0000.0,0020.10,0005.14,0002.65
2022-04-20 16:44:00,,0818.8,5.01,0.00,26.3,25.6,00.0,35.2,28.1,14.4,0000.0,0020.28,0005.20,0002.65
2022-04-20 16:45:00,,0818.8,5.00,0.00,26.3,25.6,00.0,35.2,28.1,14.1,0000.0,0020.32,0005.14,0002.64
2022-04-20 16:46:00,,0818.8,5.00,0.00,26.3,25.6,00.0,35.2,28.1,14.2,0000.0,0021.41,0005.05,0002.64
2022-04-20 16:47:00,,0818.8,4.99,0.00,26.3,25.6,00.0,35.2,28.1,14.3,0000.0,0021.94,0005.01,0002.62
2022-04-20 16:48:00,,0818.8,5.01,0.00,26.3,25.6,00.0,35.2,28.1,14.1,0000.0,0021.25,0004.99,0002.58
2022-04-20 16:49:00,,0818.9,5.00,0.00,26.3,25.6,00.0,35.2,28.2,14.2,0000.0,0021.46,0004.97,0002.55
2022-04-20 16:50:00,,0819.0,5.00,0.00,26.3,25.6,00.0,35.2,28.2,14.0,0000.0,0021.10,0004.96,0002.54
2022-04-20 16:51:00,,0819.0,5.01,0.00,26.3,25.6,00.0,35.3,28.1,13.9,0000.0,0020.64,0004.94,0002.52
2022-04-20 16:52:00,,0818.9,5.00,0.00,26.3,25.6,00.0,35.3,28.1,14.0,0000.0,0020.83,0004.96,0002.51
2022-04-20 16:53:00,,0819.0,4.99,0.00,26.3,25.6,00.0,35.3,28.2,14.0,0000.0,0020.89,0004.99,0002.51
2022-04-20 16:54:00,,0819.0,5.01,0.00,26.3,25.7,00.0,35.3,28.2,14.0,0000.0,0021.55,0004.98,0002.53
2022-04-20 16:55:00,,0818.9,4.99,0.00,26.4,25.7,00.0,35.3,28.2,13.8,0000.0,0022.24,0004.96,0002.53
2022-04-20 16:56:00,,0818.9,5.00,0.00,26.4,25.7,00.0,35.3,28.2,14.0,0000.0,0022.68,0005.06,0002.55
2022-04-20 16:57:00,,0818.9,5.00,0.00,26.4,25.7,00.0,35.3,28.2,14.0,0000.0,0021.61,0005.10,0002.56
2022-04-20 16:58:00,,0818.8,5.00,0.00,26.4,25.7,00.0,35.3,28.2,13.9,0000.0,0021.07,0005.15,0002.59
2022-04-20 16:59:00,,0818.8,5.01,0.00,26.4,25.7,00.0,35.3,28.2,14.2,0000.0,0020.65,0005.23,0002.61
